Content
SEND FEEDBACK

Daily
Averages
Monthly
Summary
United Kingdom

WADDINGTON, ENGLAND


Home > Europe > United Kingdom > England
Elevation: 230 feet     Latitude: 53 10N     Longitude: 000 31W

WEATHER
 
SELECT A DAY
Number of Records: 68,692;   Date Range: 8/10/96 - 10/21/14
 
SHARE

PRINT THIS DATA

[ ← Previous Day ]
WEATHER ALMANAC - OCTOBER 12, 2013
[ Next Day → ]
[ °C ]   °F
Weather ElementAverageHighLow
Temperature53.5 °F56 °F (12:50 pm)51.8 °F (12:50 am)
Dewpoint52.4 °F54 °F (12:50 pm)50 °F (12:50 am)
Humidity96 %100 % (2:50 am)84 % (3:50 am)
Barometer30.12 in30.21 in (12:50 am)30.04 in (9:50 pm)
Wind Speed16.2 mph20.7 mph (4:50 am)
Weather ElementAverage
Visibility3 mi
Wind DirectionNNE (34.5 °)

Weather ElementTotal
Precipitation---
Heating Degree Days11.1 (Base 65)
Growing Degree Days3.9 (Base 50)
Averaged from 40 records on October 12, 2013
WEATHER CONDITIONS BREAKOUT
WIND DIRECTION BREAKOUT
WEATHER BY HOUR - OCTOBER 12, 2013
[ °C ]   °F
Local TimeTemperatureDewpointHumidityBarometerVisibilityWind DirectionWind SpeedGust SpeedPrecipitationEventsConditions
12:50 AM51.8 °F50.0 °F94 %30.21 in3.7 miNNE (20°)18.4 mphLight Drizzle
1:50 AM51.8 °F50.0 °F94 %30.21 in2.5 miNNE (30°)17.3 mphDrizzle
2:50 AM51.8 °F51.8 °F100 %30.18 in2.8 miNNE (20°)18.4 mphLight Drizzle
3:50 AM53.0 °F50.0 °F84 %30.19 in11.0 miNNE (30°)19.6 mphRainLight Drizzle
3:50 AM53.6 °F50.0 °F88 %30.18 in6.2 miNNE (30°)19.6 mphOvercast
4:50 AM53.6 °F50.0 °F88 %30.15 in3.7 miNNE (30°)20.7 mphLight Drizzle
5:50 AM51.8 °F50.0 °F94 %30.15 in2.8 miNNE (30°)20.7 mphLight Drizzle
6:50 AM51.8 °F51.8 °F100 %30.15 inNNE (30°)19.6 mphDrizzle
7:13 AM51.8 °F51.8 °F100 %30.15 in1.2 miNNE (30°)20.7 mphDrizzle
7:50 AM53.6 °F51.8 °F94 %30.15 in1.6 miNNE (30°)19.6 mphDrizzle
8:50 AM53.6 °F51.8 °F94 %30.15 in1.2 miNE (40°)18.4 mphDrizzle
9:50 AM54.0 °F53.0 °F97 %30.18 in1.0 miNE (50°)16.1 mphRainHeavy Rain
9:50 AM53.6 °F53.6 °F100 %30.15 in1.2 miNE (50°)16.1 mphRainHeavy Rain
10:01 AM53.6 °F53.6 °F100 %30.15 in3.7 miNE (50°)16.1 mphRainRain
10:36 AM53.6 °F53.6 °F100 %30.15 in4.3 miNE (50°)12.7 mphRainLight Rain
10:50 AM53.6 °F53.6 °F100 %30.15 in5.6 miNE (40°)11.5 mphRainLight Rain
11:50 AM55.4 °F53.6 °F94 %30.15 in5.0 miNE (50°)9.2 mphRainLight Rain
12:50 PM56.0 °F54.0 °F91 %30.18 in5.0 miNE (50°)10.4 mphRainLight Rain
12:50 PM55.4 °F53.6 °F94 %30.15 in5.0 miNE (50°)10.4 mphOvercast
1:28 PM55.4 °F53.6 °F94 %30.15 in3.7 miNE (40°)10.4 mphRainLight Rain
1:50 PM55.4 °F53.6 °F94 %30.12 in6.2 miNE (40°)12.7 mphLight Drizzle
2:10 PM55.4 °F53.6 °F94 %30.12 in2.5 miNNE (30°)15.0 mphDrizzle
2:41 PM55.4 °F53.6 °F94 %30.12 in1.4 miNE (40°)13.8 mphRainRain
2:50 PM55.4 °F53.6 °F94 %30.12 in1.4 miNE (40°)13.8 mphRainRain
3:39 PM53.6 °F53.6 °F100 %30.09 in1.2 miNE (40°)13.8 mphRainHeavy Rain
3:50 PM54.0 °F53.0 °F97 %30.12 in2.0 miNE (40°)15.0 mphRainHeavy Rain
3:50 PM53.6 °F53.6 °F100 %30.09 in1.9 miNE (40°)15.0 mphRainHeavy Rain
4:09 PM53.6 °F53.6 °F100 %30.09 in2.2 miNE (40°)16.1 mphRainRain
4:27 PM53.6 °F53.6 °F100 %30.09 in1.6 miNE (40°)18.4 mphRainHeavy Rain
4:50 PM53.6 °F53.6 °F100 %30.09 in1.9 miNE (40°)18.4 mphRainHeavy Rain
5:05 PM53.6 °F51.8 °F94 %30.09 in1.9 miNE (40°)19.6 mphRainRain
5:50 PM53.6 °F51.8 °F94 %30.09 in2.8 miNNE (30°)16.1 mphRainLight Rain
6:50 PM53.0 °F52.0 °F94 %30.09 in2.0 miNNE (20°)16.1 mphRainRain
6:50 PM53.6 °F51.8 °F94 %30.06 in2.5 miNNE (20°)16.1 mphRainRain
7:50 PM51.8 °F51.8 °F100 %30.06 in1.9 miNNE (20°)18.4 mphRainRain
8:50 PM51.8 °F51.8 °F100 %30.06 in2.5 miNNE (20°)17.3 mphRainRain
9:50 PM52.0 °F51.0 °F95 %30.06 in2.0 miNNE (20°)17.3 mphRainLight Drizzle
9:50 PM51.8 °F51.8 °F100 %30.04 in2.5 miNNE (20°)17.3 mphLight Drizzle
10:50 PM51.8 °F51.8 °F100 %30.04 in2.8 miNNE (20°)16.1 mphLight Drizzle
11:50 PM53.6 °F51.8 °F94 %30.04 in2.2 miNNE (30°)15.0 mphLight Drizzle
Hourly data recorded from EGXW, located miles away from Waddington, England







STORIES FROM OUR PARTNERS